Home   Weather   Wernigerode   Past weeks

Flag for Germany Past Weather in Wernigerode, Saxony-Anhalt, Germany — Yesterday and Last 2 Weeks

Now
36 °F

Low clouds.


Feels Like: 30 °F
Forecast: 26 / 28 °F
Wind: 7 mph from West

Location: Braunschweig Wolfsburg

Current Time: Dec 16, 2017 at 10:24:32 am

Latest Report: Dec 16, 2017 at 9:20 am


Visibility: 4 mi

Pressure: 29.68 "Hg

Humidity: 100%

Dew Point: 36 °F

Location of WernigerodeLocation

Past Weather in Wernigerode — Graph

°F

Wernigerode Temperature Yesterday

Maximum temperature yesterday: 39 °F (at 1:50 pm)
Minimum temperature yesterday: 34 °F (at 6:20 am)
Average temperature yesterday: 36 °F

High & Low Weather Summary for the Past Weeks

 TemperatureHumidityPressure
High46 °F (Dec 6, 7:50 pm)100% (Dec 1, 9:20 am)30.39 "Hg (Dec 1, 9:20 am)
Low28 °F (Dec 10, 6:20 pm)70% (Dec 7, 7:20 am)28.94 "Hg (Dec 10, 6:20 pm)
Average38 °F94%29.77 "Hg
* Reported Dec 1 9:20 am — Dec 16 9:20 am, Wernigerode. Weather by CustomWeather, © 2017

Note: Actual official high and low records may vary slightly from our data, if they occured in-between our weather recording intervals... More about our weather records

Advertising

Wernigerode Weather History for the Previous 24 Hours

Scroll right to see more
 ConditionsComfort  
Time TempWeatherWind HumidityBarometerVisibility
9:20 am
Sat, Dec 16
36 °FLow clouds.7 mph100%29.68 "Hg4 mi
8:50 am36 °FFog.8 mph100%29.65 "Hg3 mi
8:20 am36 °FLow clouds.7 mph100%29.65 "Hg4 mi
9:50 pm
Fri, Dec 15
36 °FPassing clouds.1 mph100%29.53 "HgN/A
9:20 pm36 °FMostly cloudy.5 mph100%29.53 "HgN/A
8:50 pm36 °FMostly cloudy.6 mph100%29.53 "HgN/A
8:20 pm36 °FMostly cloudy.1 mph100%29.53 "HgN/A
7:50 pm34 °FMostly cloudy.No wind100%29.50 "HgN/A
7:20 pm37 °FPassing clouds.No wind100%29.50 "HgN/A
6:50 pm37 °FPassing clouds.No wind100%29.50 "HgN/A
6:20 pm37 °FOvercast.5 mph100%29.47 "HgN/A
5:50 pm37 °FOvercast.1 mph93%29.47 "HgN/A
5:20 pm37 °FPassing clouds.No wind100%29.47 "HgN/A
4:20 pm39 °FMostly cloudy.No wind93%29.47 "HgN/A
3:50 pm39 °FPartly sunny.5 mph87%29.45 "HgN/A
3:20 pm39 °FPartly sunny.3 mph87%29.45 "HgN/A
2:20 pm39 °FPassing clouds.7 mph87%29.42 "HgN/A
1:50 pm39 °FScattered clouds.6 mph93%29.42 "HgN/A
1:20 pm37 °FScattered clouds.7 mph100%29.42 "HgN/A
12:50 pm37 °FPartly sunny.6 mph100%29.42 "HgN/A
12:20 pm37 °FPartly sunny.9 mph100%29.42 "HgN/A
11:50 am37 °FPartly sunny.12 mph100%29.42 "Hg6 mi
11:20 am37 °FPartly sunny.7 mph100%29.42 "Hg6 mi
10:50 am37 °FPartly sunny.7 mph100%29.39 "Hg6 mi
10:20 am36 °FPartly sunny.7 mph100%29.39 "Hg5 mi
Weather by CustomWeather, © 2017

See weather overview